Regional Weather Roundup
Issued by NWS New Orleans/Baton Rouge, LA

Home | Current Version | Previous Version | Graphics & Text | Print | Product List | Glossary On
Versions: 1 2 3 4 5 6 7 8 9 10 11 12 13 14 15 16 17 18 19 20 21 22 23 24 25 26 27 28 29 30 31 32 33 34 35 36 37 38 39 40 41 42 43 44 45 46 47 48 49 50
651
ASUS44 KLIX 021510
RWRLIX
NEW ORLEANS REGIONAL WEATHER ROUNDUP
NATIONAL WEATHER SERVICE NEW ORLEANS LA
1000 AM CDT THU OCT 02 2014

NOTE: "FAIR" INDICATES FEW OR NO CLOUDS BELOW 12,000 FEET WITH NO
      SIGNIFICANT WEATHER AND/OR OBSTRUCTIONS TO VISIBILITY.
      SKY/WX - SKY CONDITION AND SIGNIFICANT WEATHER.
      TMP - AIR TEMPERATURE.     DP    - DEWPOINT TEMPERATURE.
      RH  - RELATIVE HUMIDITY.   PRES  - PRESSURE.
      HI  - HEAT INDEX.          WCI   - WIND CHILL INDEX.

*  THESE STATIONS ARE NOT NWS OR FAA STATIONS AND ARE NOT UNDER
   NWS QUALITY CONTROL.

LAZ038-040-048-061>063-065>067-069-021600-
SOUTHEAST LOUISIANA

CITY           SKY/WX    TMP DP  RH WIND       PRES   REMARKS
N.O. AUDUBON     N/A     84  79  83 MISG        N/A  HX  96
N.O. INTL ARPT PTSUNNY   84  77  79 S10       30.00R
N.O. LAKEFRONT PTSUNNY   84  76  76 S12       30.01R
N.O. DOWNTOWN* PTSUNNY   84  75  74 S10       30.01R
SLIDELL        PTSUNNY   85  75  72 S12       30.00S
BATON ROUGE    CLOUDY    83  76  79 S10       29.99R
BOOTHVILLE       N/A     84  79  85 S6        30.02R HX  96
BELLE CHASSE   PTSUNNY   84  75  74 S9        30.00S
BOGALUSA*        N/A     85  74  70 SW6       30.02S
GALLIANO*      NOT AVBL
NEW ROADS*     CLOUDY    81  77  88 SE7       29.98S
GONZALES*      PTSUNNY   83  81  93 SE8       29.99R HX  98
HAMMOND*         N/A     84  73  70 S7        30.02R
HOUMA*         PTSUNNY  N/A N/A N/A S9        29.99S
PORT FOURCHON* MOSUNNY   84  79  84 S8        30.04R HX  96

$$

MSZ070-080>082-021600-
SOUTHERN MISSISSIPPI

CITY           SKY/WX    TMP DP  RH WIND       PRES   REMARKS
MCCOMB         PTSUNNY   82  74  76 S12       30.01R
GULFPORT       PTSUNNY   84  76  76 SE9G17    30.01R
BILOXI           N/A     85  78  79 S9        30.02S HX  95
PASCAGOULA       N/A    N/A N/A N/A S9        30.02S
STENNIS ARPT*  PTSUNNY   86  73  66 S12G17    30.01S

$$

COASTAL OBSERVATIONS
LAKE AND NEARSHORE STATIONS

STATION/POSITION TIME  TEMP    WIND        PRES    WAVE
                       AIR SEA DIR/SP/G            HT/PER
                 (UTC) (F)     (DEG/KT/KT) (MB)    (FT/S)
PASCAGOULA       1500   85     150/  8/ 11 1016.1
WAVELAND YACHT   1500   80     160/  7/  8 1015.8
GRAND ISLE       1500   83 81  160/  6/  9 1016.7
SOUTHWEST PASS   1500   82 85  180/  7/  8 1016.7
NEW CANAL        1500   84 77  190/  6/  8 1016.3
SHELL BEACH      1500   83 75  170/  9/ 13 1016.0

OFFSHORE STATIONS

STATION/POSITION TIME  TEMP    WIND        PRES    WAVE
                       AIR SEA DIR/SP/G            HT/PER
                 (UTC) (F)     (DEG/KT/KT) (MB)    (FT/S)
64 S DAUPHIN ISL 1429   81 82  160/ 10/ 12 1017.3    2/ 4

$$




USA.gov is the U.S. government's official web portal to all federal, state and local government web resources and services.